📊 Raw Sensor Data
Showing records 47801 to 47825 of 85,091 total
| ID | Distance (ft) | Battery V | Battery A | Int Temp (°F) | Int Humid (%) | Ext Temp (°F) | Solar V | RSSI | SNR | Time Stamp |
|---|---|---|---|---|---|---|---|---|---|---|
| 37303 | 15.4 | 3.78 | -5 | 47 | 41 | 49 | 0.00 | -78 | 7 | 04/09/2025 04:30 AM |
| 37302 | 15.4 | 3.78 | -5 | 47 | 41 | 49 | 0.00 | -78 | 7 | 04/09/2025 04:15 AM |
| 37301 | 15.4 | 3.84 | -5 | 47 | 41 | 50 | 0.00 | -78 | 8 | 04/09/2025 04:00 AM |
| 37300 | 15.4 | 3.78 | -5 | 47 | 41 | 50 | 0.00 | -78 | 8 | 04/09/2025 03:45 AM |
| 37299 | -- | 3.78 | -5 | 48 | 41 | 50 | 0.00 | -78 | 7 | 04/09/2025 03:30 AM |
| 37298 | -- | 3.78 | -5 | 48 | 41 | 51 | 0.00 | -79 | 8 | 04/09/2025 03:16 AM |
| 37297 | -- | 3.76 | -5 | 49 | 41 | 50 | 0.00 | -78 | 8 | 04/09/2025 03:00 AM |
| 37296 | -- | 3.76 | -5 | 50 | 41 | 51 | 0.00 | -78 | 8 | 04/09/2025 02:45 AM |
| 37295 | -- | 3.76 | -5 | 50 | 41 | 51 | 0.00 | -78 | 8 | 04/09/2025 02:31 AM |
| 37294 | -- | 3.84 | -5 | 51 | 41 | 51 | 0.00 | -78 | 8 | 04/09/2025 02:15 AM |
| 37293 | -- | 3.78 | -5 | 51 | 41 | 53 | 0.00 | -78 | 7 | 04/09/2025 02:00 AM |
| 37292 | -- | 3.79 | -5 | 51 | 41 | 53 | 0.00 | -78 | 7 | 04/09/2025 01:45 AM |
| 37291 | -- | 3.79 | -5 | 52 | 41 | 53 | 0.00 | -78 | 8 | 04/09/2025 01:30 AM |
| 37290 | -- | 3.79 | -5 | 52 | 41 | 53 | 0.00 | -80 | 8 | 04/09/2025 01:15 AM |
| 37289 | -- | 3.85 | -5 | 52 | 41 | 54 | 0.00 | -78 | 8 | 04/09/2025 01:01 AM |
| 37288 | -- | 3.85 | -5 | 52 | 41 | 54 | 0.00 | -81 | 7 | 04/09/2025 12:45 AM |
| 37287 | -- | 3.79 | -5 | 52 | 41 | 54 | 0.00 | -79 | 7 | 04/09/2025 12:30 AM |
| 37286 | -- | 3.85 | -5 | 52 | 42 | 53 | 0.00 | -78 | 7 | 04/09/2025 12:16 AM |
| 37285 | -- | 3.79 | -5 | 52 | 42 | 54 | 0.00 | -79 | 9 | 04/09/2025 12:00 AM |
| 37284 | -- | 3.79 | -5 | 52 | 42 | 53 | 0.00 | -78 | 6 | 04/08/2025 11:45 PM |
| 37283 | 15.4 | 3.79 | -5 | 53 | 42 | 54 | 0.00 | -78 | 7 | 04/08/2025 11:30 PM |
| 37282 | -- | 3.85 | -5 | 53 | 42 | 55 | 0.10 | -77 | 7 | 04/08/2025 11:15 PM |
| 37281 | 15.4 | 3.79 | -5 | 53 | 42 | 55 | 0.10 | -77 | 8 | 04/08/2025 11:00 PM |
| 37280 | 15.3 | 3.79 | -5 | 54 | 42 | 56 | 0.00 | -77 | 8 | 04/08/2025 10:45 PM |
| 37279 | -- | 3.79 | -5 | 54 | 43 | 56 | 0.00 | -75 | 8 | 04/08/2025 10:30 PM |